Regional Weather Roundup
Issued by NWS Little Rock, AR

Home | Current Version | Previous Version | Text Only | Print | Product List | Glossary On
Versions: 1 2 3 4 5 6 7 8 9 10 11 12 13 14 15 16 17 18 19 20 21 22 23 24 25 26 27 28 29 30 31 32 33 34 35 36 37 38 39 40 41 42 43 44 45 46 47 48 49 50
000
ASUS44 KLZK 121505
RWRLZK

WEATHER ROUNDUP FOR ARKANSAS
NATIONAL WEATHER SERVICE LITTLE ROCK AR
1000 AM CDT SAT JUL 12 2014

NOTE: "FAIR" INDICATES FEW OR NO CLOUDS BELOW 12,000 FEET WITH NO
SIGNIFICANT WEATHER AND/OR OBSTRUCTIONS TO VISIBILITY.

ARZ001-003-010-029-121600-
NORTHWEST ARKANSAS

CITY           SKY/WX    TMP DP  RH WIND       PRES   REMARKS
FAYETTEVILLE   SUNNY     83  70  64 SW9       30.19F HX  87
FORT SMITH     SUNNY     85  73  67 CALM      30.16F HX  91
HARRISON       SUNNY     85  67  54 W8        30.19F HX  87
BENTONVILLE    SUNNY     82  68  61 SW13G20   30.20S HX  85
ROGERS         SUNNY     83  68  60 SW14G20   30.20S HX  86
SILOAM SPGS    SUNNY     82  66  57 SW14      30.19F HX  85
HIGHFILL       SUNNY     82  70  66 SW12      30.18F HX  86
SPRINGDALE     SUNNY     82  70  65 SW9       30.21F HX  86
$$

ARZ004-005-016-121600-
NORTH CENTRAL ARKANSAS

CITY           SKY/WX    TMP DP  RH WIND       PRES   REMARKS
BATESVILLE     SUNNY     84  75  74 CALM      30.16F HX  92
FLIPPIN        SUNNY     84  72  65 S3        30.17F HX  89
MTN HOME       SUNNY     83  74  74 S6        30.17S HX  89
$$

ARZ040-041-121600-
WEST CENTRAL ARKANSAS

CITY           SKY/WX    TMP DP  RH WIND       PRES   REMARKS
MENA           SUNNY     86  72  62 CALM      30.20F HX  92
MOUNT IDA      SUNNY     83  74  74 CALM      30.16F HX  89
$$

ARZ009-017-025-026-028-121600-
NORTHEAST ARKANSAS

CITY           SKY/WX    TMP DP  RH WIND       PRES   REMARKS
CORNING        FAIR      84  77  79 SW7       30.16F HX  94
JONESBORO      MOSUNNY   83  74  74 SW9       30.16F HX  89
NEWPORT        SUNNY     85  76  74 S5        30.18S HX  94
WALNUT RIDGE   SUNNY     82  75  78 S8        30.15F HX  89
BLYTHEVILLE    SUNNY     85  72  65 SW7       30.18S HX  91
$$

ARZ022-023-033-042-044-121600-
CENTRAL ARKANSAS

CITY           SKY/WX    TMP DP  RH WIND       PRES   REMARKS
LITTLE ROCK    MOSUNNY   86  71  60 W5        30.17F HX  91
N LITTLE ROCK  MOSUNNY   83  75  75 W3        30.17F HX  90
SEARCY         SUNNY     86  76  71 W3        30.18S HX  96
HOT SPRINGS    SUNNY     84  72  67 CALM      30.17F HX  89
RUSSELLVILLE   SUNNY     85  75  72 CALM      30.16F HX  93
CLINTON        FAIR      84  77  79 W3        30.17F HAZE    HX  94
$$

ARZ036-121600-
EAST ARKANSAS

CITY           SKY/WX    TMP DP  RH WIND       PRES   REMARKS
WEST MEMPHIS   SUNNY     85  73  67 CALM      30.17F HX  91
$$

ARZ050-053-066-070-073-121600-
SOUTHWEST ARKANSAS

CITY           SKY/WX    TMP DP  RH WIND       PRES   REMARKS
ARKADELPHIA    FAIR      87  75  67 SW3       30.17F HX  96
CAMDEN         SUNNY     84  72  65 W3        30.17S HX  89
TEXARKANA      SUNNY     88  71  57 VRB3      30.17F HX  94
EL DORADO      SUNNY     85  73  67 VRB3      30.17S HX  91
DE QUEEN       SUNNY     84  75  74 CALM      30.16S HX  92
$$

ARZ056-057-069-121600-
SOUTHEAST ARKANSAS

CITY           SKY/WX    TMP DP  RH WIND       PRES   REMARKS
PINE BLUFF     SUNNY     84  71  65 W5        30.17F HX  89
MONTICELLO     SUNNY     86  71  60 SW3       30.17S HX  91

$$





USA.gov is the U.S. government's official web portal to all federal, state and local government web resources and services.